Terminal Aerodrome Forecast
Issued by NWS

Home | Current Version | Previous Version | Text Only | Print | Product List | Glossary On
Versions: 1 2 3 4 5 6 7 8 9 10 11 12 13 14 15 16 17 18 19 20 21 22 23 24 25 26 27 28 29 30 31 32 33 34 35 36 37 38 39 40 41 42 43 44 45 46 47 48 49 50
000
FTUS41 KCTP 202333
TAFBFD
TAF
KBFD 202333Z 2100/2124 19006KT P6SM VCSH SCT025 OVC040
     FM210130 18005KT 5SM -SHRA OVC025
     FM210530 18003KT 2SM -SHRA BR OVC007
     FM210700 18002KT 1SM BR VCSH OVC003
     FM211700 31006KT P6SM VCSH OVC015=

USA.gov is the U.S. government's official web portal to all federal, state and local government web resources and services.